Wind_Speed
34 33 33 32 32 33 35 35 38 37 37 35 34 36 37 38 38 39 39 39 40 40 40 41 41 41 41 42 42 44 45 46 47 47 48 48 49 50 51 52 52 52 52 53
33 32 33 34 33 33 34 35 36 37 36 34 35 36 37 38 38 38 38 38 39 40 40 41 41 42 42 42 42 43 44 45 46 46 46 47 48 49 50 51 51 52 53 53
33 33 34 35 31 32 34 34 35 36 35 35 36 36 37 38 38 39 39 39 39 40 40 40 41 41 42 42 42 42 43 44 45 45 46 47 48 48 49 50 52 53 54 54
35 35 36 33 31 32 33 33 34 35 36 36 37 36 37 38 39 39 40 40 40 40 41 41 41 42 42 42 42 42 43 44 45 46 46 46 47 48 49 49 51 53 54 54
35 36 36 34 32 33 34 33 34 35 36 36 36 37 36 38 39 39 40 40 40 40 40 41 41 42 42 42 42 42 43 43 45 46 47 47 48 49 49 50 50 52 53 54
35 37 37 34 33 33 35 35 35 36 37 37 37 37 36 37 38 39 39 39 39 39 39 40 40 41 41 42 42 43 43 43 44 46 47 47 48 49 49 50 51 51 52 53
35 36 36 34 33 34 35 36 36 36 36 36 37 37 37 37 38 38 39 39 39 39 39 40 40 40 41 41 42 43 43 44 44 45 46 47 48 48 49 50 51 52 52 52
36 36 36 35 35 35 36 36 36 36 36 37 37 37 37 38 38 38 38 39 39 39 39 39 40 40 40 41 42 43 44 45 45 46 47 47 48 48 49 49 50 51 52 52
37 37 38 37 37 37 37 37 37 37 36 37 37 37 37 38 38 39 38 39 39 38 38 39 39 39 40 40 41 42 43 44 45 46 47 48 48 48 49 49 49 50 51 52
38 37 38 38 38 37 37 37 37 37 36 36 37 37 38 38 39 39 39 39 39 38 39 40 40 40 40 40 41 41 42 43 44 45 47 47 48 49 49 49 49 49 50 51
37 37 37 37 37 37 37 37 37 37 36 37 37 38 39 39 39 39 39 39 39 39 39 40 40 40 40 40 40 41 42 43 43 45 46 47 47 48 48 48 48 48 48 49
37 37 38 37 37 38 38 37 37 37 37 38 38 39 40 39 39 39 39 39 39 39 39 40 40 40 40 40 40 40 41 42 43 44 44 45 46 46 46 47 47 47 47 48
37 38 38 38 38 38 38 38 38 38 39 40 39 40 40 40 40 40 40 40 40 40 41 40 40 40 40 40 40 40 41 41 42 42 43 43 44 44 44 45 45 45 46 47
37 38 38 38 37 37 38 38 38 39 40 40 40 39 40 40 40 40 40 40 40 40 40 40 40 40 40 40 40 41 41 41 41 42 42 42 43 43 43 44 44 45 45 46
37 37 37 37 36 37 37 37 38 38 38 39 39 39 39 39 39 39 39 39 39 39 39 39 39 40 40 40 41 41 42 41 41 41 42 42 42 42 42 43 43 44 44 44
35 35 35 35 36 36 36 36 36 37 37 37 37 38 38 38 38 39 39 39 39 39 39 40 40 41 41 41 42 42 42 42 42 42 42 41 41 41 41 42 42 43 43 44
36 35 35 35 36 36 35 35 36 36 36 37 37 38 38 38 38 39 39 39 39 39 40 40 41 41 42 42 42 42 41 41 41 41 41 41 41 40 41 40 40 40 41 42
35 35 35 36 36 36 35 35 36 37 37 37 38 38 38 38 39 39 39 39 39 40 40 41 41 41 41 40 40 40 40 40 41 40 40 40 40 39 39 39 39 39 39 40
34 35 35 35 36 36 37 37 38 38 38 38 38 38 38 38 38 38 38 38 39 39 40 41 41 40 40 40 40 40 40 40 40 40 40 39 39 38 38 38 38 38 39 39
35 35 35 35 36 36 37 37 38 38 38 38 38 38 38 38 38 39 39 39 39 39 40 40 40 40 40 40 40 40 40 39 39 39 39 38 39 38 38 38 38 38 38 38
35 35 36 36 37 37 37 37 37 37 37 38 38 38 38 39 39 39 39 39 39 39 39 39 39 39 39 38 38 38 39 38 38 38 38 38 38 38 38 38 38 38 38 38
35 36 37 37 37 37 37 37 37 37 37 38 38 38 39 39 39 39 39 39 39 39 39 39 39 39 38 38 38 38 38 38 38 38 37 37 38 38 38 38 38 38 38 38
37 37 38 38 38 38 37 37 37 37 38 38 39 39 40 40 39 39 39 39 39 38 38 38 39 38 38 38 38 38 38 38 38 38 38 38 38 38 38 38 38 38 37 37
37 38 38 38 38 38 38 37 37 38 38 39 39 39 39 39 39 39 38 38 38 38 38 38 38 38 38 37 37 37 37 37 38 38 38 38 38 37 37 37 37 37 36 36
38 38 38 38 38 38 38 38 38 39 39 39 39 39 39 39 38 38 38 38 38 38 37 37 37 37 37 37 36 36 36 37 37 37 37 37 37 36 36 36 36 36 35 35
38 38 38 39 39 38 38 38 39 39 39 39 39 39 39 38 38 37 37 37 37 37 36 36 36 36 36 36 36 36 36 36 37 36 36 36 35 35 35 35 35 34 34 34
38 38 38 38 38 38 38 38 39 39 39 39 38 38 37 37 37 36 36 36 35 35 35 35 35 35 35 35 35 35 35 35 34 34 34 34 34 33 33 33 32 32 32 31
Wind_Direction
289 287 286 285 285 283 282 282 283 283 283 285 285 284 284 283 282 280 279 278 277 275 273 273 273 271 269 268 267 266 264 264 264 264 263 262 262 262 261 261 262 261 260 261
288 288 286 284 284 284 284 284 284 284 283 285 285 284 284 284 282 280 279 279 278 276 274 274 273 271 270 269 268 267 265 265 265 264 263 263 263 262 262 262 261 260 260 262
289 288 286 285 287 286 286 285 286 285 286 285 284 284 283 283 282 281 279 279 278 277 275 274 274 272 271 270 269 268 267 266 266 265 264 264 264 264 263 263 262 261 261 262
292 290 287 290 288 287 287 286 286 285 286 286 286 285 283 283 283 281 280 279 278 278 277 276 275 273 272 270 269 268 268 267 266 266 266 266 265 265 265 265 264 263 262 262
293 292 291 290 290 289 289 286 286 287 287 287 287 286 285 285 284 283 281 280 279 279 278 277 277 275 273 271 269 269 268 268 267 267 267 267 267 267 267 266 266 265 264 263
292 292 293 294 292 291 291 289 288 288 288 288 288 289 288 286 285 283 282 281 280 279 279 279 278 277 274 272 271 271 270 269 269 268 268 268 268 269 269 268 267 267 266 264
293 293 294 295 294 292 292 292 291 291 289 288 289 290 290 288 287 285 284 282 281 280 280 279 279 278 276 274 272 272 272 271 270 269 269 269 269 270 270 269 268 267 266 265
293 293 295 296 294 293 293 292 292 291 290 288 289 290 290 288 287 286 286 284 283 282 281 280 279 279 277 276 274 273 272 272 271 271 271 270 270 270 271 270 269 267 266 265
291 292 293 293 293 292 292 292 292 291 290 289 289 290 289 288 288 287 287 286 285 284 282 281 281 280 279 277 275 274 274 273 273 273 273 272 272 272 272 271 270 269 267 266
290 291 291 291 290 291 291 291 291 290 290 290 291 290 289 289 289 288 287 286 286 284 283 283 282 281 280 278 277 277 276 276 275 276 275 275 274 273 273 272 270 269 268 266
290 290 290 290 289 289 289 290 290 291 291 291 290 290 290 290 289 288 287 287 286 285 284 284 283 283 281 280 279 278 278 278 278 278 277 276 275 274 273 272 271 269 268 267
291 292 292 291 290 289 289 289 289 290 290 290 289 290 290 290 289 289 288 287 287 286 286 285 284 284 282 281 280 280 280 279 279 280 279 278 276 276 275 273 271 270 269 268
292 293 292 292 291 290 289 288 288 289 290 290 290 290 290 290 290 289 289 288 288 287 286 286 285 284 283 281 281 281 282 282 281 281 281 280 279 277 275 274 273 272 270 269
293 293 293 293 292 292 291 291 291 291 291 291 290 290 290 290 290 289 289 288 288 288 287 286 284 284 283 282 282 282 283 282 282 283 283 282 280 279 277 275 274 273 272 270
294 294 294 294 294 294 294 294 294 293 293 292 292 292 291 291 291 290 290 289 288 288 287 286 285 285 284 282 281 282 283 283 283 283 284 283 282 280 278 276 275 273 271 270
295 295 296 296 296 296 297 297 296 296 295 294 293 293 292 292 292 291 291 290 289 289 288 287 286 285 284 283 282 282 283 282 283 283 284 283 282 281 279 277 276 274 271 270
295 295 296 297 298 299 299 299 298 298 297 296 295 294 294 293 292 292 292 291 290 290 289 288 287 286 285 283 282 282 282 282 283 283 284 283 282 281 279 278 277 275 274 272
296 296 297 297 297 298 298 298 299 299 298 297 296 295 294 294 293 292 292 291 290 290 290 290 289 287 286 284 283 283 282 282 282 283 283 283 282 281 280 278 277 276 274 273
298 298 299 300 300 299 298 298 298 298 297 297 297 296 295 294 293 292 292 292 292 292 292 292 291 289 287 286 284 283 282 282 282 282 283 283 283 282 281 280 279 277 275 274
300 300 300 301 301 301 300 300 299 299 298 298 298 297 296 295 295 294 294 294 294 293 293 293 293 291 289 287 286 284 283 283 283 283 283 283 282 281 281 280 279 278 277 275
301 301 301 302 302 302 301 301 300 300 299 299 298 298 297 296 296 296 295 295 295 294 294 294 293 292 290 288 287 285 284 284 283 283 282 282 281 281 280 280 279 278 277 276
303 302 303 303 304 303 302 301 300 300 300 299 299 299 298 298 297 296 295 295 295 295 295 294 294 293 291 289 287 286 285 284 283 283 283 283 282 281 281 280 279 278 278 276
304 304 304 304 304 304 303 302 302 301 301 300 300 300 300 299 298 297 296 296 295 295 295 295 294 293 292 290 288 287 285 285 284 284 284 283 283 282 281 280 280 279 277 276
306 305 304 304 304 304 303 303 303 303 303 302 301 301 301 300 299 298 296 296 296 296 296 295 295 294 293 291 288 287 286 285 285 285 284 284 283 282 281 280 280 279 278 276
307 305 305 305 305 305 304 303 303 303 303 303 302 302 301 300 299 298 297 297 297 297 296 296 295 295 294 292 290 288 287 286 285 285 285 284 284 283 281 280 279 278 278 276
307 307 306 306 306 305 305 304 304 304 304 304 303 303 302 301 300 299 298 298 298 298 297 297 296 296 295 294 292 290 288 287 286 286 285 285 284 283 282 281 279 278 277 276
309 308 308 307 307 307 306 306 306 306 306 305 305 304 303 303 302 302 301 300 300 299 299 299 298 297 297 296 294 292 291 289 288 287 287 286 286 285 283 282 280 279 278 277
Height
5579 5576 5574 5571 5570 5568 5565 5562 5560 5560 5558 5557 5555 5552 5550 5547 5545 5544 5543 5541 5540 5539 5538 5536 5535 5534 5533 5531 5531 5530 5530 5530 5529 5529 5530 5530 5529 5530 5530 5531 5532 5532 5533 5534
5569 5567 5564 5561 5560 5558 5555 5553 5550 5548 5547 5547 5544 5541 5538 5536 5534 5532 5531 5529 5528 5526 5525 5524 5522 5521 5520 5519 5518 5517 5517 5516 5516 5516 5516 5516 5515 5516 5516 5516 5517 5517 5518 5519
5559 5557 5553 5551 5552 5548 5546 5543 5541 5537 5538 5535 5532 5530 5527 5525 5522 5520 5519 5517 5515 5514 5512 5511 5509 5508 5507 5506 5505 5504 5503 5503 5503 5502 5502 5502 5502 5502 5502 5502 5502 5502 5503 5504
5548 5546 5542 5545 5542 5538 5535 5533 5530 5527 5526 5523 5521 5518 5516 5513 5511 5508 5506 5505 5503 5501 5499 5498 5496 5495 5494 5492 5492 5491 5490 5490 5489 5489 5489 5488 5488 5487 5487 5487 5487 5487 5487 5488
5538 5534 5532 5534 5531 5528 5524 5523 5521 5517 5515 5512 5509 5507 5506 5502 5499 5496 5494 5492 5490 5488 5486 5485 5483 5482 5481 5480 5478 5478 5477 5476 5476 5475 5475 5474 5473 5473 5473 5472 5472 5471 5471 5472
5529 5524 5522 5524 5521 5516 5514 5512 5511 5506 5503 5501 5498 5496 5495 5491 5488 5485 5482 5480 5478 5476 5474 5472 5471 5469 5468 5466 5466 5465 5464 5463 5462 5462 5461 5460 5459 5459 5458 5457 5457 5456 5456 5456
5520 5515 5513 5513 5510 5506 5504 5503 5499 5495 5492 5490 5487 5485 5483 5479 5476 5473 5471 5468 5466 5464 5462 5460 5458 5456 5455 5453 5452 5452 5450 5449 5448 5447 5447 5446 5445 5444 5443 5442 5442 5441 5440 5440
5511 5507 5507 5503 5499 5496 5494 5490 5487 5484 5481 5479 5476 5473 5470 5467 5464 5462 5459 5457 5454 5452 5450 5448 5446 5444 5442 5441 5439 5438 5437 5436 5434 5433 5432 5431 5430 5429 5428 5427 5426 5425 5424 5424
5502 5500 5496 5492 5488 5485 5483 5480 5476 5473 5470 5468 5465 5462 5459 5456 5453 5450 5447 5445 5442 5440 5438 5435 5433 5431 5430 5428 5426 5425 5423 5422 5420 5419 5417 5416 5415 5413 5412 5411 5410 5409 5408 5408
5490 5489 5485 5481 5478 5475 5472 5468 5465 5462 5459 5456 5454 5450 5447 5444 5441 5438 5435 5433 5430 5428 5425 5423 5421 5419 5417 5415 5413 5411 5409 5408 5406 5404 5402 5400 5399 5398 5396 5395 5394 5393 5392 5392
5479 5477 5474 5471 5467 5464 5461 5457 5454 5451 5448 5445 5442 5439 5436 5433 5429 5426 5423 5420 5418 5415 5413 5410 5408 5406 5403 5402 5400 5398 5396 5394 5392 5390 5388 5386 5384 5382 5381 5379 5378 5377 5377 5376
5468 5466 5463 5460 5456 5453 5450 5447 5443 5440 5437 5434 5431 5428 5424 5421 5417 5414 5411 5408 5405 5403 5400 5398 5395 5393 5390 5388 5386 5384 5382 5380 5378 5376 5373 5371 5369 5367 5364 5364 5362 5361 5360 5360
5457 5454 5451 5448 5445 5441 5438 5435 5432 5429 5426 5422 5419 5415 5412 5409 5405 5402 5399 5396 5393 5390 5387 5385 5382 5380 5377 5375 5373 5371 5369 5366 5364 5362 5359 5357 5355 5353 5351 5349 5347 5346 5345 5344
5446 5443 5440 5437 5433 5430 5426 5423 5420 5417 5413 5410 5406 5403 5400 5396 5393 5390 5387 5384 5380 5377 5374 5371 5369 5366 5364 5362 5359 5357 5355 5353 5350 5348 5345 5343 5340 5338 5336 5335 5333 5331 5330 5329
5435 5432 5429 5425 5422 5419 5415 5411 5408 5405 5401 5397 5394 5391 5387 5384 5381 5377 5374 5371 5368 5365 5361 5358 5356 5353 5350 5348 5346 5344 5341 5339 5336 5334 5331 5328 5326 5324 5322 5320 5318 5317 5315 5314
5425 5421 5418 5415 5411 5407 5404 5400 5396 5393 5389 5386 5382 5379 5375 5372 5368 5365 5361 5358 5355 5352 5348 5345 5342 5339 5336 5334 5332 5329 5327 5325 5322 5320 5317 5314 5312 5310 5308 5306 5304 5303 5301 5300
5414 5411 5407 5404 5400 5396 5393 5389 5385 5382 5378 5374 5370 5367 5363 5359 5356 5352 5349 5345 5342 5339 5335 5332 5328 5325 5322 5320 5317 5315 5313 5310 5308 5306 5303 5301 5298 5296 5294 5292 5290 5289 5287 5286
5403 5400 5396 5393 5389 5386 5382 5378 5374 5370 5366 5362 5358 5355 5351 5347 5344 5340 5336 5333 5329 5325 5322 5318 5315 5311 5308 5305 5303 5301 5299 5297 5294 5292 5290 5287 5285 5282 5280 5279 5277 5275 5274 5272
5393 5389 5385 5382 5378 5375 5371 5367 5363 5359 5355 5351 5347 5343 5339 5335 5331 5328 5324 5320 5316 5313 5309 5305 5301 5297 5294 5291 5289 5287 5285 5283 5280 5278 5276 5273 5271 5269 5267 5265 5264 5262 5261 5259
5383 5379 5375 5371 5368 5364 5360 5356 5352 5348 5344 5339 5335 5331 5327 5323 5319 5315 5311 5308 5304 5300 5296 5292 5288 5284 5281 5278 5275 5273 5271 5269 5267 5264 5262 5260 5258 5256 5254 5252 5250 5249 5247 5246
5373 5369 5365 5361 5357 5353 5349 5344 5340 5336 5332 5328 5324 5319 5315 5311 5307 5303 5299 5295 5291 5287 5283 5279 5275 5272 5268 5265 5262 5260 5258 5255 5253 5251 5249 5247 5245 5243 5241 5239 5237 5235 5234 5232
5363 5359 5355 5350 5346 5342 5337 5333 5329 5325 5320 5316 5312 5307 5303 5299 5294 5290 5286 5283 5278 5274 5271 5267 5263 5259 5255 5252 5250 5247 5245 5242 5240 5238 5236 5234 5232 5230 5228 5226 5224 5222 5220 5219
5352 5348 5344 5340 5335 5331 5326 5322 5317 5313 5309 5304 5300 5295 5291 5286 5282 5278 5274 5270 5266 5262 5258 5254 5250 5246 5243 5240 5237 5234 5232 5229 5227 5225 5223 5220 5218 5216 5214 5212 5211 5209 5207 5206
5342 5337 5333 5328 5324 5319 5315 5310 5306 5301 5297 5292 5288 5283 5278 5274 5269 5265 5261 5257 5253 5249 5246 5242 5238 5234 5230 5227 5224 5221 5219 5216 5214 5212 5209 5207 5205 5203 5201 5199 5197 5196 5194 5193
5331 5326 5322 5317 5313 5308 5304 5299 5295 5290 5285 5280 5276 5271 5266 5262 5257 5253 5249 5245 5241 5237 5233 5229 5225 5221 5218 5214 5211 5209 5206 5203 5201 5198 5196 5194 5192 5190 5188 5186 5184 5183 5182 5180
5321 5316 5311 5306 5302 5297 5292 5288 5283 5278 5273 5268 5264 5259 5254 5250 5245 5241 5237 5233 5229 5225 5221 5217 5213 5210 5206 5202 5199 5196 5193 5191 5188 5186 5184 5181 5179 5177 5175 5173 5172 5170 5169 5168
5310 5305 5300 5296 5291 5286 5281 5276 5271 5267 5262 5257 5252 5247 5243 5238 5234 5230 5226 5221 5217 5213 5209 5205 5202 5198 5194 5190 5187 5184 5181 5178 5176 5173 5171 5169 5167 5165 5163 5161 5160 5159 5157 5156